Regional Weather Roundup
Issued by NWS Jackson, KY

Home | Current Version | Previous Version | Text Only | Print | Product List | Glossary Off
Versions: 1 2 3 4 5 6 7 8 9 10 11 12 13 14 15 16 17 18 19 20 21 22 23 24 25 26 27

000
ASUS43 KJKL 281610
RWRJKL

EAST KENTUCKY HOURLY WEATHER ROUNDUP
NATIONAL WEATHER SERVICE JACKSON KY
1200 PM EDT SUN AUG 28 2016

NOTE: "FAIR" INDICATES FEW OR NO CLOUDS BELOW 12,000 FEET WITH
NO SIGNIFICANT WEATHER AND/OR OBSTRUCTIONS TO VISIBILITY.

* THESE REPORTS ARE NOT UNDER NWS QUALITY CONTROL AND MAY NOT
  REPORT WEATHER SUCH AS PRECIPITATION AND FOG.

KYZ079-080-083-085-087-088-110-112-115-119-120-281700
...EASTERN KENTUCKY...

CITY           SKY/WX    TMP DP  RH WIND       PRES   REMARKS
JACKSON        CLOUDY    85  72  65 SE3       30.24S HX  91
LONDON         MOSUNNY   84  70  62 S3        30.23S
SOMERSET*      SUNNY     82  68  61 CALM      30.23S
MONTICELLO*    SUNNY    N/A N/A N/A VRB6      30.23S
WILLIAMSBURG*  MOSUNNY   82  73  74 CALM      30.23F
MIDDLESBORO*   SUNNY     86  71  60 CALM      30.23F HX  92
HARLAN APT*    MOSUNNY   86  68  54 CALM      30.25S
PIKE CO APT*     N/A     80  75  85 CALM      30.25S
BIG SANDY APT* CLOUDY    85  73  66 SE6       30.24S HX  91
MOREHEAD APT*  SUNNY     88  72  58 CALM      30.24S HX  94
$$

KYZ035-036-041-042-044-050-067-078-099-281700
...CENTRAL KENTUCKY...

CITY           SKY/WX    TMP DP  RH WIND       PRES   REMARKS
MT STERLING*   SUNNY     88  75  66 E5        30.23S HX  97
FLEMING/MASON* SUNNY     87  74  66 CALM      30.23F HX  95
DANVILLE*      CLOUDY    82  70  65 CALM      30.23S
LEXINGTON      MOSUNNY   87  72  60 CALM      30.22S HX  93
FRANKFORT      SUNNY     88  72  58 NE3       30.20S HX  94
LOUISVILLE     MOSUNNY   89  72  56 E3        30.19S HX  96
LEBANON*         N/A     84  73  70 CALM      30.21F HX  91
GLASGOW*       MOSUNNY   87  73  61 CALM      30.20S HX  94
BOWLING GREEN  SUNNY     89  74  60 CALM      30.18F HX  98
$$

KYZ091>093-OHZ055-061-077-WVZ005-015-034-035-042-281700
...SOUTHERN OHIO/WEST VIRGINIA...

CITY           SKY/WX    TMP DP  RH WIND       PRES   REMARKS
COVINGTON      MOSUNNY   87  73  62 NE6       30.22S HX  94
COLUMBUS       MOSUNNY   83  70  64 CALM      30.22S
DAYTON         MOSUNNY   85  71  63 N8        30.24F HX  90
WILMINGTON     SUNNY     86  71  60 VRB5      30.23S HX  91
HUNTINGTON     MOSUNNY   85  73  67 VRB3      30.21S HX  91
CHARLESTON     PTSUNNY   86  70  58 SE6       30.22S HX  90
PINEVILLE*     MOSUNNY   86  65  49 MISG      30.32F
BECKLEY        CLOUDY    78  67  68 S7        30.33F
BLUEFIELD      MOSUNNY   76  66  71 CALM      30.36S
LOGAN CO APT*    N/A     84  72  65 CALM      30.25S
$$

VAZ002-007-008-TNZ017-027-036-066-071-281700
...SOUTHWEST VIRGINIA/EAST TENNESSEE...

CITY           SKY/WX    TMP DP  RH WIND       PRES   REMARKS
WISE*          MOSUNNY   81  63  54 CALM      30.33S
JONESVILLE*      N/A     86  72  62 E3        30.26F HX  92
ABINGDON*      SUNNY     85  71  61 SE8       30.30S HX  90
BRISTOL        PTSUNNY   87  71  58 VRB5      30.25S HX  93
MORRISTOWN*    MOSUNNY   86  70  58 SE6       30.22S HX  90
SEVIERVILLE*   SUNNY     84  68  58 CALM      30.20S
KNOXVILLE      MOSUNNY   86  69  56 CALM      30.20F HX  90
OAK RIDGE      SUNNY     87  70  56 CALM      30.23S HX  92
CROSSVILLE     SUNNY     85  69  58 E6        30.27S
NASHVILLE      MOSUNNY   88  73  61 CALM      30.18F HX  95
$$

...KEY TO REMARKS...
VSB - VISIBILITY IN MILES
WCI - WIND CHILL INDEX
HX  - HEAT INDEX

$$




USA.gov is the U.S. government's official web portal to all federal, state and local government web resources and services.